This is the latest recevied weather packets stored in our database for station/object KB3KBR-WX. If no packets are shown the sender has not sent any weather packets the latest 10 day(s).
| Time | Temp. | Humidity | Pressure | Rain* | Wind** | Luminosity | Snow |
|---|---|---|---|---|---|---|---|
| 1778091540 | 11.11° C | 80% | 1007.4 hPa | 0 mm | - | - | - |
| 1778091211 | 10.56° C | 82% | 1007.4 hPa | 0 mm | - | - | - |
| 1778090911 | 10.56° C | 83% | 1007.3 hPa | 0 mm | - | - | - |
| 1778090580 | 10° C | 82% | 1007.3 hPa | 0 mm | - | - | - |
| 1778090250 | 10° C | 82% | 1007.2 hPa | 0 mm | - | - | - |
| 1778089951 | 10° C | 82% | 1007.3 hPa | 0 mm | - | - | - |
| 1778089620 | 10° C | 80% | 1007.1 hPa | 0 mm | - | - | - |
| 1778089290 | 10° C | 81% | 1007.3 hPa | 0 mm | - | - | - |
| 1778088961 | 10° C | 79% | 1007.1 hPa | 0 mm | - | - | - |
| 1778088630 | 10.56° C | 82% | 1007 hPa | 0 mm | - | - | - |
| 1778088301 | 10.56° C | 82% | 1007 hPa | 0 mm | - | - | - |
| 1778088001 | 10.56° C | 81% | 1007 hPa | 0 mm | - | - | - |
| 1778087671 | 10.56° C | 81% | 1007 hPa | 0 mm | - | - | - |
| 1778087371 | 10.56° C | 82% | 1006.8 hPa | 0 mm | - | - | - |
| 1778086710 | 10.56° C | 81% | 1006.7 hPa | 0 mm | - | - | - |
| 1778086382 | 10.56° C | 83% | 1006.6 hPa | 0 mm | - | - | - |
| 1778086081 | 11.11° C | 84% | 1006.5 hPa | 0 mm | - | - | - |
| 1778085750 | 10.56° C | 85% | 1006.4 hPa | 0 mm | - | - | - |
| 1778085451 | 10.56° C | 84% | 1006.5 hPa | 0 mm | - | - | - |
| 1778085121 | 10.56° C | 85% | 1006.6 hPa | 0 mm | - | - | - |
| 1778084821 | 10.56° C | 84% | 1006.6 hPa | 0 mm | - | - | - |
| 1778084522 | 10.56° C | 85% | 1006.4 hPa | 0 mm | - | - | - |
| 1778084222 | 10.56° C | 84% | 1006.3 hPa | 0 mm | - | - | - |
| 1778083890 | 10.56° C | 86% | 1006.2 hPa | 0 mm | - | - | - |
| 1778083560 | 10.56° C | 87% | 1006.3 hPa | 0 mm | - | - | - |
* Rain latest hour (hover to see other rain measurements)
** Current wind speed in m/s (hover to see current wind gust speed)